www.pogodaiklimat.ru

Погода и климат >> Архив погоды >> Гондурас >> Amapala


ПОГОДА в Amapala

  • Прогноз погоды в Amapala
  • Монитор погоды в Amapala
  • Климат города

АРХИВ ПОГОДЫ в Amapala

Время (UTC), дата Ветер
(напр.,м/с)
 
Видим.   Явления Облачность Т
(С)
Тd
(С)
f
(%)
Тe
(С)
Тes
(С)
Комфортность P
(гПа)
Po
(гПа)
Тmin
(С)
Tmax
(С)
R
(мм)
R24
(мм)
S
(см)
12 15.10 штиль 0 10 км 8/0
[Ac trans Cs]
+25.4 +24.6 95 +36 +36 очень
душно
1011.9 1011.4 +24.5 +34.6
18 15.10 штиль 0 20 км 3/1 750 м
[Cu hum Ci fib]
+34.6 +27.0 65 +53 +74 опасность
перегрева
1013.4 1012.9 +24.5 +34.6
21 15.10 Ю 1 20 км 4/1 900 м
[Cu hum Ac trans Ci fib]
+34.0 +26.4 65 +51 +58 опасность
перегрева
1010.3 1009.8
00 16.10 штиль 0 20 км 9/1 750 м
[Cu hum Cs]
+29.8 +26.4 82 +46 +46 опасность
перегрева
1010.5 1010.0 +24.5 +35.5
12 16.10 штиль 0 20 км 9/0
[Cs]
+26.0 +23.2 85 +35 +35 очень
душно
1012.7 1012.2 +24.8 +35.5
15 16.10 СВ 2 20 км 9/1 900 м
[Cu hum Cs]
+30.6 +23.5 66 +41 +49 опасность
перегрева
1013.6 1013.1
18 16.10 ЮЗ 2 20 км 9/1 900 м
[Cb cap Cs]
+34.2 +22.7 51 +44 +57 опасность
перегрева
1012.3 1003.8 +24.8 +34.2
21 16.10 ЮЗ 4 20 км 9/1 900 м
[Cu hum Cs]
+33.0 +23.5 58 +44 +48 опасность
перегрева
1009.7 1009.2
00 17.10 ЮЗ 2 20 км 9/1 900 м
[Cu hum Cs]
+29.6 +25.3 78 +43 +43 опасность
перегрева
1009.3 1008.8 +24.8 +35.4
12 17.10 штиль 0 20 км 1/0
[Ci fib]
+26.6 +25.8 95 +39 +39 очень
душно
1013.0 1012.5 +26.0 +35.4
15 17.10 штиль 0 20 км 3/1 600 м
[Cu hum Ci fib]
+31.6 +26.0 72 +47 +58 опасность
перегрева
1013.6 1013.1
18 17.10 С 10 20 км 1/1 900 м
[Cu hum Ci fib]
+34.6 +27.6 67 +54 +54 опасность
перегрева
1011.6 1011.0 +26.0 +34.6
21 17.10 ЮЗ 1 20 км 6/1 900 м
[Cu hum Ac trans Ci]
+34.0 +25.7 62 +49 +55 опасность
перегрева
1010.3 1009.8
00 18.10 ЮЗ 2 20 км 8/1 1020 м
[Cb cap Ac und Ci fib]
+30.8 +27.1 81 +49 +49 опасность
перегрева
1010.6 1010.1 +26.0 +35.5
15 18.10 СВ 2 10 км 3/1 840 м
[Cu hum Ci fib]
+31.6 +23.7 63 +43 +51 опасность
перегрева
1013.2 1012.7
18 18.10 В 2 10 км 6/1 900 м
[Cu hum Cs]
+35.2 +22.6 48 +44 +59 опасность
перегрева
1012.6 1012.1 +25.4 +35.2
21 18.10 Ю 2 10 км 9/1 900 м
[Cu hum Cs]
+32.8 +24.0 60 +45 +50 опасность
перегрева
1010.1 1009.6
00 19.10 ЮЗ 2 10 км 9/1 900 м
[Cu hum Cs]
+29.6 +25.3 78 +43 +43 опасность
перегрева
1010.5 1010.0 +25.4 +36.0
12 19.10 штиль 0 20 км 3/1 750 м
[Cu hum Ci fib]
+25.6 +25.1 97 +37 +37 очень
душно
1012.2 1011.7 +24.5 +36.0
15 19.10 штиль 0 10 км 8/1 900 м
[Cu hum Ac trans Cs]
+31.8 +24.8 67 +45 +52 опасность
перегрева
1012.1
18 19.10 С 3 20 км 6/1 900 м
[Cu hum Ac trans Cs]
+34.8 +25.5 59 +50 +59 опасность
перегрева
1012.3 1011.8 +24.5 +34.8
21 19.10 СВ 6 20 км 8/1 900 м
[Cu med, cong Ac trans Cs]
+34.6 +24.4 56 +47 +49 опасность
перегрева
1009.4 1008.9
15 20.10 СВ 2 20 км 4/1 900 м
[Cu hum Ci fib]
+31.6 +23.7 63 +43 +51 опасность
перегрева
1012.4 1011.9
18 20.10 СВ 2 20 км 3/1 900 м
[Cu hum Ci fib]
+34.6 +23.2 52 +45 +60 опасность
перегрева
1011.3 1010.8 +24.5 +34.6
21 20.10 ЮЗ 2 20 км 5/1 900 м
[Cu hum Ac trans]
+34.4 +23.6 53 +45 +50 опасность
перегрева
1009.0 1008.5
15 21.10 штиль 0 20 км 3/0
[Ac trans Ci fib]
+30.2 +24.2 70 +42 +53 опасность
перегрева
1012.5 1012.3
18 21.10 штиль 0 20 км 3/1 750 м
[Cu hum Ci fib]
+33.4 +26.9 69 +51 +72 опасность
перегрева
1012.5 1012.0 +24.0 +33.4
21 21.10 ЮЗ 1 20 км 6/1 960 м
[Cb cap Ci]
+33.8 +26.7 67 +51 +59 опасность
перегрева
1009.0 1008.5
00 22.10 ЮЗ 2 20 км 4/3 900 м
[Cb cap Cs]
+29.8 +27.2 86 +47 +47 опасность
перегрева
1009.5 1009.0 +24.0 +35.0

 

Местоположение метеостанции Amapala (Гондурас): широта 13.27 долгота -87.65 высота над уровнем моря 5 м.

В архиве по умолчанию представлена погода в Amapala за последнюю неделю. Архивные данные за месяц целиком и за предыдущие месяцы, начиная с января 2011 года, Вы можете получить, выбрав интересующий диапазон дат из раскрывающегося списка и нажав кнопку "Ввод!".

Внимание! Время в таблицах - всемирное. Для получения местного времени необходимо прибавить поправку, которая в Amapala равна -6 ч.

Смотрите также архив погоды в соседних городах и на ближайших метеорологических станциях:

Погода в Choluteca (Гондурас) (51 км)
Погода в Chinandega (Никарагуа) (91 км)
Погода в Tegucigalpa (Гондурас) (99 км)
Погода в La Esperanza (Гондурас) (129 км)
Погода в Jinotega (Никарагуа) (182 км)
Погода в Managua (Никарагуа) (203 км)
Погода в Santa Rosa De Copan (Гондурас) (208 км)
Погода в Nueva Ocotepeque (Гондурас) (210 км)
Погода в Yoro (Гондурас) (219 км)
Погода в La Mesa (Гондурас) (244 км)

Пояснения к столбцам:

Ветер - указаны скорость ветра в м/с - средняя за 10 мин, порывы в срок и между сроками (в фигурных скобках) и направление, откуда дует ветер: С - северный, СВ - северо-восточный, В - восточный, ЮВ - юго-восточный, Ю - южный, ЮЗ - юго-западный, З - западный, СЗ - северо-западный.
Видимость - горизонтальная дальность видимости в метрах или километрах. При видимости от 1 до 10 км при отсутствии осадков обычно наблюдается дымка, при ухудшении видимости до 1 км и менее - туман. В сухую погоду видимость может ухудшаться дымом, пылью или мглою.
Явления - указаны атмосферные явления, наблюдавшиеся в срок или в последний час перед сроком; фигурными скобками обозначены явления, наблюдавшиеся между сроками (за 1-3 часа до срока); квадратными скобками обозначены град или гололедные отложения с указанием их диаметра в мм.
Облачность - указаны через наклонную черту общая и нижняя облачность в баллах и высота нижней границы облаков в метрах; квадратными скобками обозначены формы облаков: Ci - перистые, Cs - перисто-слоистые, Cc - перисто-кучевые, Ac - высококучевые, As - высокослоистые, Sc - слоисто-кучевые, Ns - слоисто-дождевые, Cu - кучевые, Cb - кучево-дождевые. Подробнее классификацию облаков см. в Атласе облаков (PDF).
T - Температура воздуха - температура, измеренная на высоте 2 м над землей.
Td - Температура точки росы - температура, при понижении до которой содержащийся в воздухе водяной пар достигнет насыщения.
f - Относительная влажность воздуха - влажноcть воздуха, измеренная на высоте 2 м над землей.
Te - Эффективная температура - температура, которую ощущает одетый по сезону человек в тени. Характеристика душности погоды. При расчете учитывается влияние влажности воздуха и скорости ветра на теплоощущения человека.
Tes - Эффективная температура на солнце - температура, которую ощущает человек, с поправкой на солнечный нагрев. Характеристика знойности погоды. Зависит от высоты солнца над горизонтом, облачности и скорости ветра. Ночью, в пасмурную погоду, а также при ветре 12 м/с и более поправка равна нулю.
P - Атмосферное давление - приведенное к уровню моря атмосферное давление.
Po - Атмосферное давление - измеренное на уровне метеостанции атмосферное давление.
Tmin - Минимальная температура - минимум температуры воздуха на высоте 2 м над землей.
Tmax - Максимальная температура - максимум температуры воздуха на высоте 2 м над землей.
R - Количество осадков - Количество выпавших осадков за период времени, мм. При наведении курсора мыши на число - период времени, за который выпало указанное количество осадков.
R24 - Количество осадков - Количество выпавших осадков за 24 часа, мм.
S - Снежный покров - Высота снежного покрова, см. При наведении курсора мыши на число - состояние снежного покрова и степень покрытия местности в баллах.